Weather History for KN60 - September, 2013

Change the Weather History Date:

Sunday, September 22, 2013

  Actual Average Record
Temperature  
Mean Temperature 65 °F -  
Max Temperature 80 °F 65 °F 84 °F (2007)
Min Temperature 49 °F 40 °F 23 °F (2012)
Growing Degree Days 14 (Base 50)    
Moisture  
Dew Point 52 °F    
Average Humidity 64    
Maximum Humidity 86    
Minimum Humidity 42    
Precipitation  
Precipitation 0.00 in - - ()
Month to date precipitation 2.62  
Year to date precipitation 24.93  
Sea Level Pressure  
Sea Level Pressure 29.53 in    
Wind  
Wind Speed 10 mph (ESE)    
Max Wind Speed 14 mph    
Max Gust Speed -    
Averages and records for this station are not official NWS values.
T = Trace of Precipitation, MM = Missing Value Source: NWS Daily Summary

Daily Weather History Graph

Daily Weather History Graph

Search for Another Location

Airport or City:

Trip Planner

Search our weather history database for the weather conditions in past years. The results will help you decide how hot, cold, wet, or windy it might be!

Date:

Astronomy

Sep. 22, 2013 Rise Set
Actual Time 7:32 AM CDT 7:42 PM CDT
Civil Twilight 7:02 AM CDT 8:13 PM CDT
Nautical Twilight 6:25 AM CDT 8:49 PM CDT
Astronomical Twilight 5:48 AM CDT 9:26 PM CDT
Moon 9:16 PM CDT (9/22) 11:12 AM CDT (9/22)
Length of Visible Light 13h 11m
Length of Day
12h 10m
Waning Gibbous, 88% of the Moon is Illuminated
Sep 22
Waning Gibbous
Sep 26
Last Quarter
Oct 4
New
Oct 11
First Quarter
Oct 18
Full

Hourly Weather History & Observations

Time (CDT) Temp. Dew Point Humidity Pressure Visibility Wind Dir Wind Speed Gust Speed Precip Events Conditions
12:52 AM 53.1 °F 45.0 °F 74% 29.69 in - ESE 9.2 mph - N/A   Unknown
1:52 AM 52.0 °F 45.0 °F 77% 29.67 in - ESE 9.2 mph - N/A   Unknown
2:52 AM 51.1 °F 45.0 °F 80% 29.65 in - ESE 9.2 mph - N/A   Unknown
3:52 AM 50.0 °F 45.0 °F 83% 29.62 in - East 10.4 mph - N/A   Unknown
4:52 AM 50.0 °F 46.0 °F 86% 29.61 in - East 10.4 mph - N/A   Unknown
5:52 AM 50.0 °F 46.0 °F 86% 29.61 in - East 10.4 mph - N/A   Unknown
6:52 AM 50.0 °F 46.0 °F 86% 29.59 in - ESE 11.5 mph - N/A   Unknown
7:52 AM 50.0 °F 46.9 °F 89% 29.60 in - ESE 11.5 mph - N/A   Unknown
8:52 AM 53.1 °F 48.0 °F 83% 29.58 in - ESE 6.9 mph - N/A   Unknown
9:52 AM 57.0 °F 48.9 °F 74% 29.57 in - SE 11.5 mph - N/A   Unknown
10:52 AM 61.0 °F 50.0 °F 67% 29.55 in - SE 13.8 mph - N/A   Unknown
11:52 AM 64.9 °F 51.1 °F 61% 29.53 in - SE 10.4 mph - N/A   Unknown
12:52 PM 70.0 °F 52.0 °F 53% 29.52 in - Variable 5.8 mph - N/A   Unknown
1:52 PM 73.0 °F 53.1 °F 49% 29.48 in - SE 12.7 mph - N/A   Unknown
2:52 PM 75.0 °F 53.1 °F 46% 29.47 in - SSE 12.7 mph - N/A   Unknown
3:52 PM 78.1 °F 53.1 °F 42% 29.45 in - SSE 12.7 mph - N/A   Unknown
4:52 PM 79.0 °F 55.0 °F 44% 29.44 in - South 9.2 mph - N/A   Unknown
5:52 PM 75.9 °F 57.0 °F 52% 29.46 in - South 5.8 mph - N/A   Unknown
6:52 PM 73.9 °F 60.1 °F 62% 29.45 in - Calm Calm - N/A   Unknown
7:52 PM 72.0 °F 60.1 °F 66% 29.44 in - ENE 5.8 mph - N/A   Unknown
8:52 PM 70.0 °F 59.0 °F 68% 29.43 in - ENE 5.8 mph - N/A   Unknown
9:52 PM 69.1 °F 60.1 °F 73% 29.42 in - East 3.5 mph - 0.01 in   Unknown
10:52 PM 68.0 °F 60.1 °F 76% 29.42 in - Calm Calm - N/A   Unknown
11:52 PM 66.9 °F 60.1 °F 79% 29.39 in - East 12.7 mph - N/A   Unknown